Regional Weather Roundup
Issued by NWS Cleveland, OH

Home | Current Version | Previous Version | Text Only | Print | Product List | Glossary Off
Versions: 1 2 3 4 5 6 7 8 9 10 11 12 13 14 15 16 17 18 19 20 21 22 23 24 25 26 27 28 29 30 31 32 33 34 35 36 37 38 39 40 41 42 43 44 45 46 47 48 49 50

000
ASUS41 KCLE 241212
RWRCLE
OHIO REGIONAL WEATHER ROUNDUP
NATIONAL WEATHER SERVICE WILMINGTON, OH
800 AM EDT SAT JUN 24 2017

NOTE: "FAIR" INDICATES FEW OR NO CLOUDS BELOW 12,000 FEET WITH NO
SIGNIFICANT WEATHER AND/OR OBSTRUCTIONS TO VISIBILITY.

OHZ001>008-015>018-024>027-034-035-043-044-241300-
   NORTHWEST OHIO

CITY           SKY/WX    TMP DP  RH WIND       PRES   REMARKS
DEFIANCE       FAIR      63  56  78 VRB6      29.88R
FINDLAY        FAIR      64  56  75 W7        29.87R
TOLEDO EXPRESS FAIR      64  57  78 W7        29.86R
TOLEDO EXEC    FAIR      66  57  72 NW9       29.86R
LIMA           PTSUNNY   64  58  80 W8        29.90R
$$

OHZ009>014-019>023-028>033-038-089-241300-
   NORTHEAST OHIO

CITY           SKY/WX    TMP DP  RH WIND       PRES   REMARKS
CLE-HOPKINS    FAIR      67  57  70 SW12      29.85R
CLE-LAKEFRONT  PTSUNNY   67  56  67 SW13      29.82R
CUY CO. ARPT   PTSUNNY   68  59  73 W9        29.83R
LORAIN-ELYRIA  FAIR      64  52  64 W8        29.85R
ASHTABULA      FAIR      66  63  90 W8        29.82R
AKRON-CANTON   FAIR      65  57  75 W7        29.86R
WOOSTER        FAIR      65  56  72 W8        29.87R
MANSFIELD      PTSUNNY   64  56  75 W8        29.87R
YOUNGSTOWN     FAIR      65  61  87 W8        29.83R
$$

OHZ042-051>053-060>062-070>072-077>081-241300-
  SOUTHWEST OHIO

CITY           SKY/WX    TMP DP  RH WIND       PRES   REMARKS
CINC-COVINGTON FAIR      65  62  90 W6        29.95R
CINC-LUNKEN    FAIR      67  63  87 W5        29.95R
HAMILTON       FAIR      64  64 100 W6        29.95R
DAYTON         FAIR      64  59  83 NW9       29.93R
WRIGHT-PAT AFB SUNNY     65  64  98 W7        29.92R
DAYTON GENERAL FAIR      64  61  90 W6        29.93R
WILMINGTON     FAIR      65  64  97 W8        29.93R
$$

OHZ036-037-039>041-045>050-054>059-063>069-073>076-082>088-241300-
  CENTRAL AND SOUTHEAST OHIO

CITY           SKY/WX    TMP DP  RH WIND       PRES   REMARKS
COLUMBUS       PTSUNNY   66  62  87 SW7       29.89R
OSU AIRPORT    FAIR      64  61  90 W9        29.89R
BOLTON FIELD   MOSUNNY   64  61  88 W7        29.90S
RICKENBACK AFB FAIR      63  63 100 SW5       29.90R
NEWARK         FAIR      66  62  87 VRB3      29.89R
MARION         FAIR      65  57  75 W9        29.89R
LANCASTER      FAIR      65  62  90 W6        29.91R
ZANESVILLE     FAIR      66  62  87 SW6       29.90R
NEW PHILLY     FAIR      65  61  87 S3        29.88R
$$



USA.gov is the U.S. government's official web portal to all federal, state and local government web resources and services.